Time,TemperatureF,DewpointF,PressureIn,WindDirection,WindDirectionDegrees,WindSpeedMPH,WindSpeedGustMPH,Humidity,HourlyPrecipIn,Conditions,Clouds,dailyrainin,SoftwareType,DateUTC
2013-02-11 00:02:00,27.0,27.0,-100.00,NNW,340,19.0,24.0,99,0.00,,,0.02,,2013-02-11 06:02:00,
2013-02-11 00:11:00,27.0,27.0,-100.00,NNW,335,18.0,24.0,99,0.00,,,0.02,,2013-02-11 06:11:00,
2013-02-11 00:21:00,27.0,27.0,-100.00,NNW,340,20.0,25.0,99,0.00,,,0.02,,2013-02-11 06:21:00,
2013-02-11 00:32:00,27.0,27.0,-100.00,NNW,330,19.0,24.0,98,0.00,,,0.02,,2013-02-11 06:32:00,
2013-02-11 01:32:00,26.0,25.0,-100.00,NNW,330,20.0,26.0,98,0.00,,,0.02,,2013-02-11 07:32:00,
2013-02-11 01:41:00,26.0,25.0,-100.00,NW,325,21.0,27.0,98,0.00,,,0.02,,2013-02-11 07:41:00,
2013-02-11 01:52:00,26.0,25.0,-100.00,NW,325,21.0,26.0,98,0.00,,,0.02,,2013-02-11 07:52:00,
2013-02-11 02:01:00,26.0,25.0,-100.00,NNW,330,22.0,30.0,97,0.00,,,0.02,,2013-02-11 08:01:00,
2013-02-11 02:11:00,26.0,25.0,-100.00,NW,325,24.0,32.0,96,0.00,,,0.02,,2013-02-11 08:11:00,
2013-02-11 02:21:00,25.0,25.0,-100.00,NW,325,25.0,31.0,96,0.00,,,0.02,,2013-02-11 08:21:00,
2013-02-11 02:31:00,25.0,25.0,-100.00,NW,325,24.0,30.0,96,0.00,,,0.02,,2013-02-11 08:31:00,
2013-02-11 02:42:00,25.0,25.0,-100.00,NW,325,24.0,31.0,96,0.00,,,0.02,,2013-02-11 08:42:00,
2013-02-11 02:52:00,25.0,25.0,-100.00,NNW,330,21.0,31.0,96,0.00,,,0.02,,2013-02-11 08:52:00,
2013-02-11 03:01:00,25.0,23.0,-100.00,NW,325,22.0,30.0,96,0.00,,,0.02,,2013-02-11 09:01:00,
2013-02-11 03:12:00,25.0,23.0,-100.00,NW,320,21.0,29.0,96,0.00,,,0.02,,2013-02-11 09:12:00,
2013-02-11 03:21:00,24.0,23.0,-100.00,NW,320,22.0,27.0,96,0.00,,,0.02,,2013-02-11 09:21:00,
2013-02-11 03:32:00,24.0,23.0,-100.00,NW,320,25.0,30.0,96,0.00,,,0.02,,2013-02-11 09:32:00,
2013-02-11 03:41:00,24.0,23.0,-100.00,NW,320,22.0,29.0,96,0.00,,,0.02,,2013-02-11 09:41:00,
2013-02-11 03:51:00,24.0,23.0,-100.00,NW,315,22.0,28.0,96,0.00,,,0.02,,2013-02-11 09:51:00,
2013-02-11 04:01:00,24.0,23.0,-100.00,NW,320,22.0,29.0,96,0.00,,,0.02,,2013-02-11 10:01:00,
2013-02-11 04:11:00,24.0,23.0,-100.00,NW,315,22.0,30.0,95,0.00,,,0.02,,2013-02-11 10:11:00,
2013-02-11 04:21:00,23.0,23.0,-100.00,NW,320,24.0,30.0,94,0.00,,,0.02,,2013-02-11 10:21:00,
2013-02-11 04:31:00,23.0,21.0,-100.00,NW,315,22.0,29.0,94,0.00,,,0.02,,2013-02-11 10:31:00,
2013-02-11 04:41:00,23.0,21.0,-100.00,NW,320,26.0,29.0,94,0.00,,,0.02,,2013-02-11 10:41:00,
2013-02-11 04:51:00,23.0,21.0,-100.00,NW,315,25.0,30.0,94,0.00,,,0.02,,2013-02-11 10:51:00,
2013-02-11 05:01:00,23.0,21.0,-100.00,NW,315,24.0,30.0,96,0.00,,,0.02,,2013-02-11 11:01:00,
2013-02-11 05:11:00,23.0,21.0,-100.00,NW,315,22.0,29.0,97,0.00,,,0.02,,2013-02-11 11:11:00,
2013-02-11 06:12:00,22.0,21.0,-100.00,NW,315,21.0,29.0,98,0.00,,,0.02,,2013-02-11 12:12:00,
2013-02-11 06:22:00,22.0,21.0,-100.00,NW,315,20.0,30.0,98,0.00,,,0.02,,2013-02-11 12:22:00,
2013-02-11 06:32:00,22.0,21.0,-100.00,NW,320,20.0,26.0,98,0.00,,,0.02,,2013-02-11 12:32:00,
2013-02-11 06:42:00,22.0,21.0,-100.00,NW,305,16.0,25.0,98,0.00,,,0.02,,2013-02-11 12:42:00,
2013-02-11 06:52:00,22.0,21.0,-100.00,WNW,300,17.0,26.0,98,0.00,,,0.02,,2013-02-11 12:52:00,
2013-02-11 07:02:00,22.0,21.0,-100.00,WNW,300,18.0,27.0,97,0.00,,,0.02,,2013-02-11 13:02:00,
2013-02-11 07:11:00,22.0,21.0,-100.00,NW,305,19.0,24.0,97,0.00,,,0.02,,2013-02-11 13:11:00,
2013-02-11 07:22:00,21.0,21.0,-100.00,NW,305,21.0,26.0,97,0.00,,,0.02,,2013-02-11 13:22:00,
2013-02-11 07:32:00,21.0,21.0,-100.00,NW,310,20.0,27.0,97,0.00,,,0.02,,2013-02-11 13:32:00,
2013-02-11 07:42:00,21.0,19.0,-100.00,NW,305,19.0,26.0,96,0.00,,,0.02,,2013-02-11 13:42:00,
2013-02-11 07:52:00,21.0,19.0,-100.00,NW,310,17.0,26.0,95,0.00,,,0.02,,2013-02-11 13:52:00,
2013-02-11 08:01:00,21.0,19.0,-100.00,NW,305,18.0,26.0,94,0.00,,,0.02,,2013-02-11 14:01:00,
2013-02-11 08:11:00,21.0,19.0,-100.00,NW,315,20.0,28.0,93,0.00,,,0.02,,2013-02-11 14:11:00,
2013-02-11 08:21:00,20.0,19.0,-100.00,NW,305,18.0,24.0,93,0.00,,,0.02,,2013-02-11 14:21:00,
2013-02-11 08:32:00,20.0,19.0,-100.00,WNW,300,18.0,24.0,92,0.00,,,0.02,,2013-02-11 14:32:00,
2013-02-11 08:42:00,20.0,19.0,-100.00,NW,305,19.0,24.0,92,0.00,,,0.02,,2013-02-11 14:42:00,
2013-02-11 08:52:00,20.0,18.0,-100.00,WNW,300,19.0,25.0,92,0.00,,,0.02,,2013-02-11 14:52:00,
2013-02-11 09:02:00,20.0,18.0,-100.00,NW,305,19.0,27.0,92,0.00,,,0.02,,2013-02-11 15:02:00,
2013-02-11 09:11:00,20.0,19.0,-100.00,WNW,300,20.0,27.0,92,0.00,,,0.02,,2013-02-11 15:11:00,
2013-02-11 09:22:00,20.0,19.0,-100.00,NW,305,19.0,24.0,92,0.00,,,0.02,,2013-02-11 15:22:00,
2013-02-11 09:32:00,20.0,19.0,-100.00,NW,305,19.0,26.0,93,0.00,,,0.02,,2013-02-11 15:32:00,
2013-02-11 09:42:00,20.0,19.0,-100.00,WNW,300,20.0,27.0,93,0.00,,,0.02,,2013-02-11 15:42:00,
2013-02-11 09:52:00,20.0,19.0,-100.00,NW,305,23.0,27.0,93,0.00,,,0.01,,2013-02-11 15:52:00,
2013-02-11 10:02:00,20.0,19.0,-100.00,NW,305,21.0,27.0,94,0.00,,,0.01,,2013-02-11 16:02:00,
2013-02-11 10:11:00,21.0,19.0,-100.00,NW,305,18.0,26.0,94,0.00,,,0.01,,2013-02-11 16:11:00,
2013-02-11 10:22:00,20.0,19.0,-100.00,NW,305,21.0,28.0,94,0.00,,,0.01,,2013-02-11 16:22:00,
2013-02-11 10:32:00,20.0,19.0,-100.00,WNW,300,20.0,29.0,93,0.00,,,0.01,,2013-02-11 16:32:00,
2013-02-11 10:42:00,20.0,19.0,-100.00,NW,305,21.0,27.0,92,0.00,,,0.01,,2013-02-11 16:42:00,
2013-02-11 10:52:00,20.0,19.0,-100.00,WNW,300,23.0,28.0,92,0.00,,,0.01,,2013-02-11 16:52:00,
2013-02-11 11:01:00,21.0,19.0,-100.00,NW,315,24.0,30.0,92,0.00,,,0.01,,2013-02-11 17:01:00,
2013-02-11 11:11:00,21.0,19.0,-100.00,NW,310,23.0,30.0,92,0.00,,,0.01,,2013-02-11 17:11:00,
2013-02-11 11:21:00,21.0,19.0,-100.00,NW,310,19.0,29.0,91,0.00,,,0.01,,2013-02-11 17:21:00,
2013-02-11 11:32:00,21.0,19.0,-100.00,NW,315,23.0,29.0,91,0.00,,,0.01,,2013-02-11 17:32:00,
2013-02-11 11:42:00,21.0,19.0,-100.00,NW,315,19.0,29.0,90,0.00,,,0.01,,2013-02-11 17:42:00,
2013-02-11 11:52:00,21.0,19.0,-100.00,NW,305,21.0,29.0,91,0.00,,,0.01,,2013-02-11 17:52:00,
2013-02-11 12:01:00,21.0,19.0,-100.00,NW,315,22.0,32.0,90,0.00,,,0.01,,2013-02-11 18:01:00,
2013-02-11 12:11:00,21.0,19.0,-100.00,WNW,300,24.0,28.0,90,0.00,,,0.01,,2013-02-11 18:11:00,
2013-02-11 12:21:00,21.0,19.0,-100.00,NW,305,22.0,29.0,90,0.00,,,0.01,,2013-02-11 18:21:00,
2013-02-11 12:32:00,21.0,19.0,-100.00,NW,305,21.0,28.0,89,0.00,,,0.01,,2013-02-11 18:32:00,
2013-02-11 12:42:00,22.0,19.0,-100.00,NW,305,21.0,29.0,89,0.00,,,0.01,,2013-02-11 18:42:00,
2013-02-11 12:52:00,21.0,19.0,-100.00,WNW,300,21.0,29.0,89,0.00,,,0.01,,2013-02-11 18:52:00,
2013-02-11 13:02:00,21.0,19.0,-100.00,NW,305,21.0,29.0,92,0.00,,,0.00,,2013-02-11 19:02:00,
2013-02-11 13:11:00,21.0,19.0,-100.00,NW,305,24.0,30.0,92,0.00,,,0.00,,2013-02-11 19:11:00,
2013-02-11 13:21:00,21.0,19.0,-100.00,WNW,300,21.0,30.0,92,0.00,,,0.00,,2013-02-11 19:21:00,
2013-02-11 13:32:00,21.0,19.0,-100.00,WNW,300,25.0,29.0,92,0.00,,,0.00,,2013-02-11 19:32:00,
2013-02-11 13:41:00,21.0,19.0,-100.00,NW,310,21.0,30.0,91,0.00,,,0.00,,2013-02-11 19:41:00,
2013-02-11 13:51:00,20.0,18.0,-100.00,NW,305,24.0,29.0,90,0.00,,,0.00,,2013-02-11 19:51:00,
2013-02-11 14:01:00,20.0,18.0,-100.00,NW,315,20.0,32.0,88,0.00,,,0.00,,2013-02-11 20:01:00,
2013-02-11 14:11:00,20.0,18.0,-100.00,WNW,300,20.0,25.0,91,0.00,,,0.00,,2013-02-11 20:11:00,
2013-02-11 14:21:00,20.0,18.0,-100.00,WNW,300,22.0,29.0,91,0.00,,,0.00,,2013-02-11 20:21:00,
2013-02-11 14:32:00,20.0,18.0,-100.00,NW,305,25.0,30.0,89,0.00,,,0.00,,2013-02-11 20:32:00,
2013-02-11 14:42:00,20.0,18.0,-100.00,WNW,300,21.0,29.0,88,0.00,,,0.00,,2013-02-11 20:42:00,
2013-02-11 14:52:00,20.0,16.0,-100.00,NW,310,19.0,27.0,87,0.00,,,0.00,,2013-02-11 20:52:00,
2013-02-11 15:02:00,19.0,16.0,-100.00,NW,315,22.0,29.0,87,0.00,,,0.00,,2013-02-11 21:02:00,
2013-02-11 15:11:00,19.0,16.0,-100.00,NW,310,22.0,27.0,87,0.00,,,0.00,,2013-02-11 21:11:00,
2013-02-11 15:21:00,19.0,16.0,-100.00,NW,305,22.0,28.0,85,0.00,,,0.00,,2013-02-11 21:21:00,
2013-02-11 15:32:00,19.0,16.0,-100.00,NW,305,22.0,28.0,84,0.00,,,0.00,,2013-02-11 21:32:00,
2013-02-11 15:42:00,19.0,16.0,-100.00,NW,315,14.0,26.0,83,0.00,,,0.00,,2013-02-11 21:42:00,
2013-02-11 15:51:00,19.0,14.0,-100.00,NW,310,18.0,27.0,83,0.00,,,0.00,,2013-02-11 21:51:00,
2013-02-11 16:01:00,19.0,14.0,-100.00,NW,315,18.0,26.0,83,0.00,,,0.00,,2013-02-11 22:01:00,
2013-02-11 16:11:00,19.0,14.0,-100.00,NW,310,16.0,22.0,84,0.00,,,0.00,,2013-02-11 22:11:00,
2013-02-11 16:21:00,19.0,14.0,-100.00,NW,310,19.0,25.0,84,0.00,,,0.00,,2013-02-11 22:21:00,
2013-02-11 16:32:00,19.0,14.0,-100.00,NW,310,16.0,23.0,84,0.00,,,0.00,,2013-02-11 22:32:00,
2013-02-11 16:42:00,19.0,16.0,-100.00,NW,310,14.0,23.0,84,0.00,,,0.00,,2013-02-11 22:42:00,
2013-02-11 16:52:00,19.0,16.0,-100.00,NW,305,17.0,21.0,84,0.00,,,0.00,,2013-02-11 22:52:00,
2013-02-11 17:02:00,20.0,16.0,-100.00,NW,305,15.0,23.0,84,0.00,,,0.00,,2013-02-11 23:02:00,
2013-02-11 17:11:00,19.0,16.0,-100.00,NW,310,16.0,22.0,84,0.00,,,0.00,,2013-02-11 23:11:00,
2013-02-11 17:21:00,20.0,16.0,-100.00,NW,310,14.0,21.0,84,0.00,,,0.00,,2013-02-11 23:21:00,
2013-02-11 17:32:00,20.0,16.0,-100.00,WNW,300,16.0,24.0,84,0.00,,,0.00,,2013-02-11 23:32:00,
2013-02-11 17:41:00,20.0,16.0,-100.00,NW,305,13.0,24.0,84,0.00,,,0.00,,2013-02-11 23:41:00,
2013-02-11 17:52:00,20.0,16.0,-100.00,WNW,295,14.0,18.0,86,0.00,,,0.00,,2013-02-11 23:52:00,
2013-02-11 18:01:00,20.0,18.0,-100.00,WNW,300,14.0,19.0,88,0.00,,,0.00,,2013-02-12 00:01:00,
2013-02-11 18:11:00,19.0,16.0,-100.00,WNW,300,17.0,22.0,88,0.00,,,0.00,,2013-02-12 00:11:00,
2013-02-11 18:22:00,19.0,16.0,-100.00,WNW,295,17.0,21.0,88,0.00,,,0.00,,2013-02-12 00:22:00,
2013-02-11 18:32:00,18.0,16.0,-100.00,WNW,295,14.0,21.0,88,0.00,,,0.00,,2013-02-12 00:32:00,
2013-02-11 18:42:00,17.0,14.0,-100.00,WNW,285,12.0,17.0,88,0.00,,,0.00,,2013-02-12 00:42:00,
2013-02-11 18:52:00,17.0,16.0,-100.00,WNW,290,15.0,18.0,90,0.00,,,0.00,,2013-02-12 00:52:00,
2013-02-11 19:02:00,17.0,14.0,-100.00,WNW,290,13.0,17.0,91,0.00,,,0.00,,2013-02-12 01:02:00,
2013-02-11 19:11:00,16.0,14.0,-100.00,WNW,290,12.0,16.0,91,0.00,,,0.00,,2013-02-12 01:11:00,
2013-02-11 19:21:00,16.0,14.0,-100.00,WNW,285,13.0,15.0,93,0.00,,,0.00,,2013-02-12 01:21:00,
2013-02-11 19:32:00,16.0,14.0,-100.00,WNW,285,12.0,15.0,93,0.00,,,0.00,,2013-02-12 01:32:00,
2013-02-11 19:42:00,16.0,14.0,-100.00,WNW,295,12.0,14.0,93,0.00,,,0.00,,2013-02-12 01:42:00,
2013-02-11 19:51:00,16.0,14.0,-100.00,WNW,290,10.0,14.0,93,0.00,,,0.00,,2013-02-12 01:51:00,
2013-02-11 20:01:00,16.0,14.0,-100.00,WNW,295,11.0,15.0,92,0.00,,,0.00,,2013-02-12 02:01:00,
2013-02-11 20:11:00,17.0,14.0,-100.00,WNW,295,12.0,16.0,89,0.00,,,0.00,,2013-02-12 02:11:00,
2013-02-11 20:21:00,18.0,14.0,-100.00,NW,305,11.0,17.0,88,0.00,,,0.00,,2013-02-12 02:21:00,
2013-02-11 20:31:00,18.0,16.0,-100.00,WNW,300,9.0,12.0,89,0.00,,,0.00,,2013-02-12 02:31:00,
2013-02-11 20:41:00,18.0,16.0,-100.00,WNW,300,9.0,12.0,89,0.00,,,0.00,,2013-02-12 02:41:00,
2013-02-11 20:52:00,19.0,16.0,-100.00,WNW,290,8.0,11.0,90,0.00,,,0.00,,2013-02-12 02:52:00,
2013-02-11 21:02:00,18.0,16.0,-100.00,WNW,295,9.0,12.0,90,0.00,,,0.00,,2013-02-12 03:02:00,
2013-02-11 21:11:00,18.0,16.0,-100.00,WNW,295,7.0,11.0,91,0.00,,,0.00,,2013-02-12 03:11:00,
2013-02-11 21:21:00,16.0,14.0,-100.00,West,275,9.0,10.0,92,0.00,,,0.00,,2013-02-12 03:21:00,
2013-02-11 21:31:00,16.0,14.0,-100.00,West,280,9.0,12.0,92,0.00,,,0.00,,2013-02-12 03:31:00,
2013-02-11 21:41:00,15.0,14.0,-100.00,West,275,9.0,11.0,93,0.00,,,0.00,,2013-02-12 03:41:00,
2013-02-11 21:51:00,15.0,14.0,-100.00,West,275,9.0,11.0,94,0.00,,,0.00,,2013-02-12 03:51:00,
2013-02-11 22:01:00,15.0,14.0,-100.00,West,280,10.0,12.0,95,0.00,,,0.00,,2013-02-12 04:01:00,
2013-02-11 22:11:00,14.0,12.0,-100.00,WNW,285,8.0,12.0,96,0.00,,,0.00,,2013-02-12 04:11:00,
2013-02-11 22:21:00,13.0,12.0,-100.00,West,280,9.0,11.0,96,0.00,,,0.00,,2013-02-12 04:21:00,
2013-02-11 22:31:00,12.0,12.0,-100.00,West,275,9.0,10.0,97,0.00,,,0.00,,2013-02-12 04:31:00,
2013-02-11 22:41:00,13.0,12.0,-100.00,West,275,9.0,11.0,97,0.00,,,0.00,,2013-02-12 04:41:00,
2013-02-11 22:51:00,13.0,12.0,-100.00,West,275,9.0,11.0,97,0.00,,,0.00,,2013-02-12 04:51:00,
2013-02-11 23:01:00,12.0,12.0,-100.00,West,270,4.0,10.0,97,0.00,,,0.00,,2013-02-12 05:01:00,
2013-02-11 23:11:00,11.0,10.0,-100.00,West,260,7.0,9.0,97,0.00,,,0.00,,2013-02-12 05:11:00,
2013-02-11 23:21:00,11.0,10.0,-100.00,WSW,255,6.0,7.0,97,0.00,,,0.00,,2013-02-12 05:21:00,
2013-02-11 23:31:00,12.0,10.0,-100.00,WSW,250,4.0,6.0,97,0.00,,,0.00,,2013-02-12 05:31:00,
2013-02-11 23:52:00,13.0,12.0,-100.00,WSW,250,7.0,9.0,98,0.00,,,0.00,,2013-02-12 05:52:00,